Weather History for Falls City, NE

Change the Weather History Date:

Thursday, May 8, 2014

  Actual Average Record
Temperature  
Mean Temperature 71 °F -  
Max Temperature 82 °F 75 °F 90 °F (1963)
Min Temperature 57 °F 49 °F 34 °F (1980)
Cooling Degree Days 6    
Growing Degree Days 21 (Base 50)    
Moisture  
Dew Point 58 °F    
Average Humidity 61    
Maximum Humidity 81    
Minimum Humidity 34    
Precipitation  
Precipitation 0.00 in - - ()
Sea Level Pressure  
Sea Level Pressure 29.64 in    
Wind  
Wind Speed 16 mph (SSW)    
Max Wind Speed 21 mph    
Max Gust Speed 38 mph    
Visibility 10 miles    
Events Rain , Thunderstorm    
Averages and records for this station are not official NWS values.
T = Trace of Precipitation, MM = Missing Value Source: NWS Daily Summary

Daily Weather History Graph

Daily Weather History Graph

Search for Another Location

Airport:

Trip Planner

Search our weather history database for the weather conditions in past years. The results will help you decide how hot, cold, wet, or windy it might be!

Date:

Astronomy

May. 08, 2014 Rise Set
Actual Time 6:13 AM CDT 8:24 PM CDT
Civil Twilight 5:43 AM CDT 8:54 PM CDT
Nautical Twilight 5:07 AM CDT 9:31 PM CDT
Astronomical Twilight 4:26 AM CDT 10:11 PM CDT
Moon 2:25 PM CDT (5/8) 2:45 AM CDT (5/8)
Length of Visible Light 15h 10m
Length of Day
14h 10m
Waxing Gibbous, 65% of the Moon is Illuminated
May 8
Waxing Gibbous
May 14
Full
May 21
Last Quarter
May 28
New
Jun 5
First Quarter

Hourly Weather History & Observations

Time (CDT) Temp. Heat Index Dew Point Humidity Pressure Visibility Wind Dir Wind Speed Gust Speed Precip Events Conditions
12:53 AM 79.0 °F - 59.0 °F 50% 29.56 in 10.0 mi SSW 19.6 mph 38.0 mph 0.00 in Rain Light Rain
1:53 AM 75.2 °F - 64.4 °F 69% 29.59 in 10.0 mi SSE 20.7 mph 26.5 mph N/A Rain Light Rain
2:53 AM 73.9 °F - 63.0 °F 68% 29.60 in 10.0 mi South 18.4 mph 27.6 mph 0.00 in   Clear
3:53 AM 72.0 °F - 62.1 °F 71% 29.62 in 10.0 mi SSW 12.7 mph 20.7 mph N/A   Clear
4:53 AM 71.1 °F - 62.1 °F 73% 29.62 in 10.0 mi SSE 11.5 mph - N/A   Clear
5:53 AM 68.0 °F - 61.0 °F 78% 29.62 in 10.0 mi SSE 10.4 mph - N/A   Clear
6:53 AM 68.0 °F - 62.1 °F 81% 29.63 in 8.0 mi SSE 9.2 mph - N/A   Clear
7:53 AM 70.0 °F - 62.1 °F 76% 29.65 in 10.0 mi SSE 10.4 mph - N/A   Clear
8:53 AM 73.0 °F - 63.0 °F 71% 29.65 in 10.0 mi South 16.1 mph 21.9 mph N/A   Clear
9:53 AM 73.0 °F - 63.0 °F 71% 29.65 in 10.0 mi South 15.0 mph 21.9 mph N/A   Clear
10:53 AM 73.0 °F - 63.0 °F 71% 29.64 in 10.0 mi South 12.7 mph 29.9 mph N/A   Mostly Cloudy
11:36 AM 71.1 °F - 64.0 °F 78% 29.67 in 10.0 mi South 15.0 mph 23.0 mph 0.00 in Rain Light Rain
11:53 AM 72.0 °F - 63.0 °F 73% 29.63 in 10.0 mi South 12.7 mph 24.2 mph 0.00 in   Overcast
12:53 PM 73.0 °F - 61.0 °F 66% 29.62 in 10.0 mi South 16.1 mph 26.5 mph N/A   Clear
1:53 PM 78.1 °F - 61.0 °F 56% 29.61 in 10.0 mi South 15.0 mph 29.9 mph N/A   Clear
2:53 PM 82.0 °F 82.1 °F 59.0 °F 45% 29.59 in 10.0 mi SW 15.0 mph 27.6 mph N/A   Scattered Clouds
3:37 PM 82.0 °F 82.0 °F 57.9 °F 44% 29.62 in 10.0 mi SSW 20.7 mph 27.6 mph N/A Thunderstorm Thunderstorm
3:49 PM 75.2 °F - 60.8 °F 61% 29.63 in 10.0 mi SSE 15.0 mph - N/A Thunderstorm Thunderstorm
3:53 PM 73.4 °F - 60.8 °F 65% 29.63 in 10.0 mi SSE 15.0 mph 23.0 mph N/A Thunderstorm Thunderstorm
4:09 PM 73.9 °F - 62.1 °F 66% 29.63 in 10.0 mi South 11.5 mph 24.2 mph 0.00 in Rain , Thunderstorm Light Rain
4:35 PM 75.9 °F - 62.1 °F 62% 29.64 in 10.0 mi South 15.0 mph - 0.00 in   Mostly Cloudy
4:53 PM 77.0 °F - 62.1 °F 60% 29.60 in 10.0 mi South 10.4 mph - 0.00 in Thunderstorm Mostly Cloudy
5:11 PM 75.9 °F - 63.0 °F 64% 29.62 in 10.0 mi SSE 13.8 mph - N/A   Scattered Clouds
5:53 PM 81.0 °F 80.4 °F 53.1 °F 38% 29.60 in 10.0 mi WSW 16.1 mph 27.6 mph N/A   Mostly Cloudy
6:53 PM 78.8 °F - 48.2 °F 34% 29.63 in 10.0 mi West 16.1 mph 23.0 mph N/A   Scattered Clouds
7:53 PM 75.0 °F - 46.0 °F 36% 29.66 in 10.0 mi West 17.3 mph - N/A   Scattered Clouds
8:53 PM 68.0 °F - 45.0 °F 43% 29.70 in 10.0 mi WNW 17.3 mph - N/A   Clear
9:53 PM 64.0 °F - 45.0 °F 50% 29.73 in 10.0 mi WNW 15.0 mph 25.3 mph N/A   Clear
10:53 PM 60.1 °F - 43.0 °F 53% 29.76 in 10.0 mi WNW 17.3 mph 25.3 mph N/A   Clear
11:53 PM 57.0 °F - 43.0 °F 59% 29.78 in 10.0 mi NW 15.0 mph - N/A   Clear